Hangzhou Xiaoshan International Airport
ZSHC : now visible

Airfield :











YOU CAN JOIN US ON...

 
LOGIN :

Register | Disclaimer

   EN    FR    IT 

 









Legend :    VFR   Marginal VFR   IFR   Intensive IFR   Very Intensive IFR
Visi :
Ceiling :
>= 8 km
>= 3000ft
5 to 8 km
1000 to 3000 ft
1500m to 5 km
500 to 1000 ft
800 to 1500m
200 to 500 ft
< 800m
< 200 ft
Symbols :   Thunderstorms  Fog  Heavy snow  Heavy precipitations  Wind > 20 kt






- Airport Elevation : 23 ft
- IATA code : HGH


ZSHC - Hangzhou Xiaoshan International

CURRENT METAR :
  • 270000Z 04002MPS 360V080 5000 BR FEW033 19/16 Q1020 NOSIG

EXPIRED METARs :
  • 262330Z 08002MPS 5000 BR NSC 18/16 Q1019 NOSIG
  • 262300Z 07001MPS 5000 BR NSC 18/16 Q1019 NOSIG
  • 262230Z 01002MPS 5000 BR NSC 18/16 Q1018 NOSIG
  • 262200Z 02002MPS 5000 BR NSC 18/16 Q1018 NOSIG
  • 262130Z 35002MPS 5000 BR NSC 17/16 Q1018 NOSIG

TAF TAF ZSHC
Valid from the 27 at 00:00 until the 28 at 00:00 UTC


262100Z 2700/2724 09003MPS 3000 BR NSC TX25/2706Z TN15/2721Z
ZSHA FIR / Asia



MET'MAP, your aeronautical weather chart ! - Copyright ORBIFLY December 2007 - Disclaimer

ORBIFLY MET'MAP TEAM :

Programming & Development : Alexandra Zaïnal
Concept & original design : Baudouin d'Aumeries
Assistance for programming : Marc-Olivier Méhu
Technical & hardware support : Manuel Goepfert

Contact : metmap@orbifly.com




SOURCES & CREDITS :

   NOAA       Earth
Advisory